Time,TemperatureF,DewpointF,PressureIn,WindDirection,WindDirectionDegrees,WindSpeedMPH,WindSpeedGustMPH,Humidity,HourlyPrecipIn,Conditions,Clouds,dailyrainin,SolarRadiationWatts/m^2,SoftwareType,DateUTC
2013-05-23 00:03:00,65.0,63.0,-100.00,SSE,161,5.0,12.0,92,0.00,,,0.21,0.000000,,2013-05-23 04:03:00,
2013-05-23 00:33:00,64.0,61.0,-100.00,SSE,159,4.0,12.0,91,0.00,,,0.21,0.000000,,2013-05-23 04:33:00,
2013-05-23 00:43:00,64.0,61.0,-100.00,SSE,159,4.0,12.0,91,0.00,,,0.21,0.000000,,2013-05-23 04:43:00,
2013-05-23 00:52:00,64.0,61.0,-100.00,SSE,159,4.0,12.0,91,0.00,,,0.21,0.000000,,2013-05-23 04:52:00,
2013-05-23 01:02:00,64.0,61.0,-100.00,SSE,159,4.0,12.0,91,0.00,,,0.21,0.000000,,2013-05-23 05:02:00,
2013-05-23 01:32:00,64.0,60.0,-100.00,SSE,167,5.0,10.0,87,0.00,,,0.21,0.000000,,2013-05-23 05:32:00,
2013-05-23 01:43:00,64.0,60.0,-100.00,SSE,167,5.0,10.0,87,0.00,,,0.21,0.000000,,2013-05-23 05:43:00,
2013-05-23 01:52:00,64.0,60.0,-100.00,SSE,167,5.0,10.0,87,0.00,,,0.21,0.000000,,2013-05-23 05:52:00,
2013-05-23 02:02:00,64.0,60.0,-100.00,SSE,167,5.0,10.0,87,0.00,,,0.21,0.000000,,2013-05-23 06:02:00,
2013-05-23 02:32:00,65.0,60.0,-100.00,SSE,167,6.0,9.0,84,0.00,,,0.21,0.000000,,2013-05-23 06:32:00,
2013-05-23 02:42:00,65.0,60.0,-100.00,SSE,167,6.0,9.0,84,0.00,,,0.21,0.000000,,2013-05-23 06:42:00,
2013-05-23 02:52:00,65.0,60.0,-100.00,SSE,167,6.0,9.0,84,0.00,,,0.21,0.000000,,2013-05-23 06:52:00,
2013-05-23 03:02:00,65.0,60.0,-100.00,SSE,167,6.0,9.0,84,0.00,,,0.21,0.000000,,2013-05-23 07:02:00,
2013-05-23 03:32:00,65.0,61.0,-100.00,South,173,6.0,14.0,86,0.00,,,0.21,0.000000,,2013-05-23 07:32:00,
2013-05-23 03:42:00,65.0,61.0,-100.00,South,173,6.0,14.0,86,0.00,,,0.21,0.000000,,2013-05-23 07:42:00,
2013-05-23 03:59:00,65.0,61.0,-100.00,South,173,6.0,14.0,86,0.00,,,0.21,0.000000,,2013-05-23 07:59:00,
2013-05-23 04:32:00,63.0,62.0,-100.00,South,179,4.0,12.0,95,0.03,,,0.24,0.000000,,2013-05-23 08:32:00,
2013-05-23 04:42:00,63.0,62.0,-100.00,South,179,4.0,12.0,95,0.03,,,0.24,0.000000,,2013-05-23 08:42:00,
2013-05-23 04:52:00,63.0,62.0,-100.00,South,179,4.0,12.0,95,0.03,,,0.24,0.000000,,2013-05-23 08:52:00,
2013-05-23 05:02:00,63.0,62.0,-100.00,South,179,4.0,12.0,95,0.03,,,0.24,0.000000,,2013-05-23 09:02:00,
2013-05-23 05:33:00,63.0,61.0,-100.00,South,183,2.0,11.0,93,0.00,,,0.24,0.000000,,2013-05-23 09:33:00,
2013-05-23 05:42:00,63.0,61.0,-100.00,South,183,2.0,11.0,93,0.00,,,0.24,0.000000,,2013-05-23 09:42:00,
2013-05-23 05:53:00,63.0,61.0,-100.00,South,183,2.0,11.0,93,0.00,,,0.24,0.000000,,2013-05-23 09:53:00,
2013-05-23 06:03:00,63.0,61.0,-100.00,South,183,2.0,11.0,93,0.00,,,0.24,0.000000,,2013-05-23 10:03:00,
2013-05-23 06:32:00,63.0,61.0,-100.00,South,169,4.0,13.0,92,0.00,,,0.24,1.000000,,2013-05-23 10:32:00,
2013-05-23 06:42:00,63.0,61.0,-100.00,South,169,4.0,13.0,92,0.00,,,0.24,1.000000,,2013-05-23 10:42:00,
2013-05-23 06:52:00,63.0,61.0,-100.00,South,169,4.0,13.0,92,0.00,,,0.24,1.000000,,2013-05-23 10:52:00,
2013-05-23 07:02:00,63.0,61.0,-100.00,South,169,4.0,13.0,92,0.00,,,0.24,1.000000,,2013-05-23 11:02:00,
2013-05-23 07:32:00,62.0,60.0,-100.00,South,178,6.0,13.0,94,0.05,,,0.17,15.000000,,2013-05-23 11:32:00,
2013-05-23 07:42:00,62.0,60.0,-100.00,South,178,6.0,13.0,94,0.05,,,0.17,15.000000,,2013-05-23 11:42:00,
2013-05-23 07:52:00,62.0,60.0,-100.00,South,178,6.0,13.0,94,0.05,,,0.17,15.000000,,2013-05-23 11:52:00,
2013-05-23 08:01:00,62.0,60.0,-100.00,South,178,6.0,13.0,94,0.05,,,0.17,15.000000,,2013-05-23 12:01:00,
2013-05-23 08:32:00,64.0,61.0,-100.00,South,181,6.0,12.0,90,0.01,,,0.18,58.000000,,2013-05-23 12:32:00,
2013-05-23 08:42:00,64.0,61.0,-100.00,South,181,6.0,12.0,90,0.01,,,0.18,58.000000,,2013-05-23 12:42:00,
2013-05-23 08:52:00,64.0,61.0,-100.00,South,181,6.0,12.0,90,0.01,,,0.18,58.000000,,2013-05-23 12:52:00,
2013-05-23 09:01:00,64.0,61.0,-100.00,South,181,6.0,12.0,90,0.01,,,0.18,58.000000,,2013-05-23 13:01:00,
2013-05-23 09:32:00,66.0,62.0,-100.00,SSW,192,4.0,12.0,86,0.00,,,-99.99,168.000000,,2013-05-23 13:32:00,
2013-05-23 09:42:00,66.0,62.0,-100.00,SSW,192,4.0,12.0,86,0.00,,,-99.99,168.000000,,2013-05-23 13:42:00,
2013-05-23 09:52:00,66.0,62.0,-100.00,SSW,192,4.0,12.0,86,0.00,,,-99.99,168.000000,,2013-05-23 13:52:00,
2013-05-23 10:02:00,66.0,62.0,-100.00,SSW,192,4.0,12.0,86,0.00,,,-99.99,168.000000,,2013-05-23 14:02:00,
2013-05-23 10:32:00,68.0,60.0,-100.00,SSW,195,6.0,14.0,76,0.00,,,0.17,300.000000,,2013-05-23 14:32:00,
2013-05-23 10:42:00,68.0,60.0,-100.00,SSW,195,6.0,14.0,76,0.00,,,0.17,300.000000,,2013-05-23 14:42:00,
2013-05-23 10:52:00,68.0,60.0,-100.00,SSW,195,6.0,14.0,76,0.00,,,0.17,300.000000,,2013-05-23 14:52:00,
2013-05-23 11:01:00,68.0,60.0,-100.00,SSW,195,6.0,14.0,76,0.00,,,0.17,300.000000,,2013-05-23 15:01:00,
2013-05-23 11:33:00,66.0,60.0,-100.00,NW,324,4.0,13.0,82,0.08,,,0.25,344.000000,,2013-05-23 15:33:00,
2013-05-23 11:43:00,66.0,60.0,-100.00,NW,324,4.0,13.0,82,0.08,,,0.25,344.000000,,2013-05-23 15:43:00,
2013-05-23 11:53:00,66.0,60.0,-100.00,NW,324,4.0,13.0,82,0.08,,,0.25,344.000000,,2013-05-23 15:53:00,
2013-05-23 12:03:00,66.0,60.0,-100.00,NW,324,4.0,13.0,82,0.08,,,0.25,344.000000,,2013-05-23 16:03:00,
2013-05-23 12:34:00,72.0,65.0,-100.00,South,190,4.0,8.0,78,0.16,,,0.41,552.000000,,2013-05-23 16:34:00,
2013-05-23 12:43:00,72.0,65.0,-100.00,South,190,4.0,8.0,78,0.16,,,0.41,552.000000,,2013-05-23 16:43:00,
2013-05-23 12:53:00,72.0,65.0,-100.00,South,190,4.0,8.0,78,0.16,,,0.41,552.000000,,2013-05-23 16:53:00,
2013-05-23 13:03:00,72.0,65.0,-100.00,South,190,4.0,8.0,78,0.16,,,0.41,552.000000,,2013-05-23 17:03:00,
2013-05-23 13:33:00,71.0,62.0,-100.00,SW,226,3.0,13.0,74,0.00,,,0.41,664.000000,,2013-05-23 17:33:00,
2013-05-23 13:43:00,71.0,62.0,-100.00,SW,226,3.0,13.0,74,0.00,,,0.41,664.000000,,2013-05-23 17:43:00,
2013-05-23 13:53:00,71.0,62.0,-100.00,SW,226,3.0,13.0,74,0.00,,,0.41,664.000000,,2013-05-23 17:53:00,
2013-05-23 14:01:00,71.0,62.0,-100.00,SW,226,3.0,13.0,74,0.00,,,0.41,664.000000,,2013-05-23 18:01:00,
2013-05-23 14:32:00,73.0,60.0,-100.00,WSW,238,4.0,13.0,64,0.00,,,0.41,562.000000,,2013-05-23 18:32:00,
2013-05-23 14:42:00,73.0,60.0,-100.00,WSW,238,4.0,13.0,64,0.00,,,0.41,562.000000,,2013-05-23 18:42:00,
2013-05-23 14:52:00,73.0,60.0,-100.00,WSW,238,4.0,13.0,64,0.00,,,0.41,562.000000,,2013-05-23 18:52:00,
2013-05-23 15:01:00,73.0,60.0,-100.00,WSW,238,4.0,13.0,64,0.00,,,0.41,562.000000,,2013-05-23 19:01:00,
2013-05-23 15:32:00,67.0,60.0,-100.00,NNW,339,3.0,11.0,77,0.00,,,0.41,290.000000,,2013-05-23 19:32:00,
2013-05-23 15:42:00,67.0,60.0,-100.00,NNW,339,3.0,11.0,77,0.00,,,0.41,290.000000,,2013-05-23 19:42:00,
2013-05-23 15:52:00,67.0,60.0,-100.00,NNW,339,3.0,11.0,77,0.00,,,0.41,290.000000,,2013-05-23 19:52:00,
2013-05-23 16:02:00,67.0,60.0,-100.00,NNW,339,3.0,11.0,77,0.00,,,0.41,290.000000,,2013-05-23 20:02:00,
2013-05-23 16:32:00,65.0,59.0,-100.00,NNW,339,4.0,10.0,82,0.00,,,0.41,249.000000,,2013-05-23 20:32:00,
2013-05-23 16:42:00,65.0,59.0,-100.00,NNW,339,4.0,10.0,82,0.00,,,0.41,249.000000,,2013-05-23 20:42:00,
2013-05-23 16:52:00,65.0,59.0,-100.00,NNW,339,4.0,10.0,82,0.00,,,0.41,249.000000,,2013-05-23 20:52:00,
2013-05-23 17:01:00,65.0,59.0,-100.00,NNW,339,4.0,10.0,82,0.00,,,0.41,249.000000,,2013-05-23 21:01:00,
2013-05-23 17:33:00,63.0,59.0,-100.00,NNW,327,3.0,10.0,86,0.00,,,0.41,221.000000,,2013-05-23 21:33:00,
2013-05-23 17:43:00,63.0,59.0,-100.00,NNW,327,3.0,10.0,86,0.00,,,0.41,221.000000,,2013-05-23 21:43:00,
2013-05-23 17:53:00,63.0,59.0,-100.00,NNW,327,3.0,10.0,86,0.00,,,0.41,221.000000,,2013-05-23 21:53:00,
2013-05-23 18:03:00,63.0,59.0,-100.00,NNW,327,3.0,10.0,86,0.00,,,0.41,221.000000,,2013-05-23 22:03:00,
2013-05-23 18:33:00,61.0,60.0,-100.00,SSW,213,1.0,4.0,95,0.07,,,-99.99,39.000000,,2013-05-23 22:33:00,
2013-05-23 18:42:00,61.0,60.0,-100.00,SSW,213,1.0,4.0,95,0.07,,,-99.99,39.000000,,2013-05-23 22:42:00,
2013-05-23 18:52:00,61.0,60.0,-100.00,SSW,213,1.0,4.0,95,0.07,,,-99.99,39.000000,,2013-05-23 22:52:00,
2013-05-23 19:02:00,61.0,60.0,-100.00,SSW,213,1.0,4.0,95,0.07,,,-99.99,39.000000,,2013-05-23 23:02:00,
2013-05-23 19:32:00,60.0,58.0,-100.00,NW,306,1.0,7.0,94,0.01,,,0.48,31.000000,,2013-05-23 23:32:00,
2013-05-23 19:42:00,60.0,58.0,-100.00,NW,306,1.0,7.0,94,0.01,,,0.48,31.000000,,2013-05-23 23:42:00,
2013-05-23 19:52:00,60.0,58.0,-100.00,NW,306,1.0,7.0,94,0.01,,,0.48,31.000000,,2013-05-23 23:52:00,
2013-05-23 20:01:00,60.0,58.0,-100.00,NW,306,1.0,7.0,94,0.01,,,0.48,31.000000,,2013-05-24 00:01:00,
2013-05-23 20:32:00,59.0,58.0,-100.00,SW,229,1.0,3.0,96,0.01,,,0.43,24.000000,,2013-05-24 00:32:00,
2013-05-23 20:42:00,59.0,58.0,-100.00,SW,229,1.0,3.0,96,0.01,,,0.43,24.000000,,2013-05-24 00:42:00,
2013-05-23 20:52:00,59.0,58.0,-100.00,SW,229,1.0,3.0,96,0.01,,,0.43,24.000000,,2013-05-24 00:52:00,
2013-05-23 21:01:00,59.0,58.0,-100.00,SW,229,1.0,3.0,96,0.01,,,0.43,24.000000,,2013-05-24 01:01:00,
2013-05-23 21:32:00,58.0,57.0,-100.00,ESE,108,0.0,3.0,97,0.00,,,0.42,7.000000,,2013-05-24 01:32:00,
2013-05-23 21:42:00,58.0,57.0,-100.00,ESE,108,0.0,3.0,97,0.00,,,0.42,7.000000,,2013-05-24 01:42:00,
2013-05-23 21:52:00,58.0,57.0,-100.00,ESE,108,0.0,3.0,97,0.00,,,0.42,7.000000,,2013-05-24 01:52:00,
2013-05-23 22:02:00,58.0,57.0,-100.00,ESE,108,0.0,3.0,97,0.00,,,0.42,7.000000,,2013-05-24 02:02:00,
2013-05-23 22:32:00,53.0,52.0,-100.00,NW,307,6.0,15.0,96,0.00,,,0.42,0.000000,,2013-05-24 02:32:00,
2013-05-23 22:42:00,53.0,52.0,-100.00,NW,307,6.0,15.0,96,0.00,,,0.42,0.000000,,2013-05-24 02:42:00,
2013-05-23 22:52:00,53.0,52.0,-100.00,NW,307,6.0,15.0,96,0.00,,,0.42,0.000000,,2013-05-24 02:52:00,
2013-05-23 23:02:00,53.0,52.0,-100.00,NW,307,6.0,15.0,96,0.00,,,0.42,0.000000,,2013-05-24 03:02:00,
2013-05-23 23:33:00,48.0,47.0,-100.00,NW,310,4.0,12.0,96,0.02,,,0.44,0.000000,,2013-05-24 03:33:00,
2013-05-23 23:42:00,48.0,47.0,-100.00,NW,310,4.0,12.0,96,0.02,,,0.44,0.000000,,2013-05-24 03:42:00,
2013-05-23 23:53:00,48.0,47.0,-100.00,NW,310,4.0,12.0,96,0.02,,,0.44,0.000000,,2013-05-24 03:53:00,